• Join FlightAware (Why Join?)
  • Login
  • US Flag GB Flag 
21:12 EDT


 

Airport Tracker/Info


-or-


 

Live Flight TrackerFlight Track Log ✈ ASH3732 ✈ 13-Jul-2013 ✈ KORD - KJAX

Flight Track Log - Related Links

Times and Time Zones

All times are in EDT time to prevent confusion due to time zone crossing. See the ASH3732 flight status page for this flight to view local times or setup timezone preferences in your user account.

Time Position Orientation Groundspeed Altitude Reporting Facility
EDT Latitude Longitude Course Direction KTS MPH feet Rate Location/Type
23:05 41.9833 -87.8667 180° South 152 175 1,700  Level Chicago TRACON
23:06 41.9167 -87.8667 180° South 238 274 3,600 2,160 Climbing Chicago TRACON
23:07 41.8339 -87.8458 169° South 248 285 7,100 2,580 Climbing Chicago Center
23:08 41.7644 -87.8231 166° South 256 295 9,700 2,340 Climbing Chicago Center
23:09 41.6886 -87.8031 169° South 275 316 11,900 1,860 Climbing Chicago Center
23:10 41.6069 -87.7792 168° South 297 342 13,600 1,740 Climbing Chicago Center
23:11 41.5025 -87.7483 168° South 316 364 15,500 1,680 Climbing Chicago Center
23:12 41.4064 -87.7253 170° South 343 395 17,100 1,320 Climbing Chicago Center
23:13 41.3047 -87.7261 180° South 362 417 18,300 1,380 Climbing Chicago Center
23:14 41.2011 -87.7253 180° South 368 423 20,000 1,140 Climbing Chicago Center
23:15 41.0972 -87.7114 174° South 375 432 20,700 960 Climbing Chicago Center
23:16 40.9897 -87.6972 174° South 386 444 22,000 1,080 Climbing Chicago Center
23:17 40.8831 -87.6828 174° South 388 447 22,900 1,020 Climbing Chicago Center
23:18 40.7722 -87.6672 174° South 399 459 24,100 1,020 Climbing Chicago Center
23:19 40.6622 -87.6531 174° South 400 460 25,000 1,020 Climbing Chicago Center
23:20 40.5517 -87.6383 174° South 403 464 26,200 1,020 Climbing Chicago Center
23:21 40.4425 -87.6225 174° South 397 457 27,100 840 Climbing Chicago Center
23:22 40.3317 -87.6078 174° South 403 464 28,000 780 Climbing Chicago Center
23:24 40.2314 -87.5508 157° South 398 458 28,800 780 Climbing Chicago Center
23:25 40.1219 -87.4847 155° Southeast 393 452 29,600 780 Climbing Chicago Center
23:25 40.0203 -87.4203 154° Southeast 399 459 30,300 420 Climbing Indianapolis Center
23:26 39.9186 -87.3589 155° Southeast 404 465 30,500 780 Climbing Indianapolis Center
23:27 39.8136 -87.3067 159° South 406 467 31,900 1,140 Climbing Indianapolis Center
23:28 39.7103 -87.2547 159° South 403 464 32,800 540 Climbing Indianapolis Center
23:29 39.6075 -87.2031 159° South 400 460 33,000 240 Climbing Indianapolis Center
23:30 39.5000 -87.1489 159° South 413 475 33,400 540 Climbing Indianapolis Center
23:31 39.3933 -87.0953 159° South 416 479 34,100 660 Climbing Indianapolis Center
23:33 39.2878 -87.0428 159° South 411 473 34,800 420 Climbing Indianapolis Center
23:34 39.1831 -86.9897 159° South 408 470 35,000 60 Climbing Indianapolis Center
23:35 39.0681 -86.9336 159° South 408 470 35,000  Level Indianapolis Center
23:36 38.9639 -86.8819 159° South 402 463 35,000  Level Indianapolis Center
23:37 38.8600 -86.8303 159° South 398 458 35,000  Level Indianapolis Center
23:38 38.7536 -86.7769 159° South 405 466 35,000  Level Indianapolis Center
23:39 38.6447 -86.7233 159° South 413 475 35,000  Level Indianapolis Center
23:40 38.5336 -86.6703 160° South 418 481 35,000  Level Indianapolis Center
23:41 38.4236 -86.6156 159° South 418 481 35,000  Level Indianapolis Center
23:42 38.3150 -86.5633 159° South 414 476 35,000  Level Indianapolis Center
23:43 38.2083 -86.5125 159° South 407 468 35,000  Level Indianapolis Center
23:44 38.1031 -86.4614 159° South 402 463 35,000  Level Indianapolis Center
23:45 37.9992 -86.4111 159° South 395 455 35,000  Level Indianapolis Center
23:46 37.8961 -86.3611 159° South 395 455 35,000  Level Indianapolis Center
23:47 37.8050 -86.3178 159° South 390 449 35,000  Level Indianapolis Center
23:48 37.7025 -86.2708 160° South 389 448 35,000  Level Indianapolis Center
23:49 37.5994 -86.2219 159° South 390 449 35,000  Level Indianapolis Center
23:50 37.4972 -86.1736 159° South 389 448 35,000  Level Indianapolis Center
23:51 37.3947 -86.1247 159° South 388 447 35,000  Level Indianapolis Center
23:52 37.2922 -86.0764 159° South 388 447 35,000  Level Indianapolis Center
23:53 37.1881 -86.0272 159° South 394 453 35,000  Level Indianapolis Center
23:54 37.0853 -85.9781 159° South 392 451 35,000  Level Indianapolis Center
23:55 36.9808 -85.9306 160° South 394 453 35,000  Level Indianapolis Center
23:56 36.8758 -85.8811 159° South 399 459 35,000  Level Indianapolis Center
23:57 36.7714 -85.8328 160° South 397 457 35,000  Level Indianapolis Center
23:58 36.6628 -85.7822 160° South 393 452 35,000  Level Indianapolis Center
23:59 36.5581 -85.7333 159° South 400 460 35,000  Level Indianapolis Center
00:00 36.4528 -85.6861 160° South 402 463 35,000  Level Indianapolis Center
00:01 36.3489 -85.6378 159° South 401 461 35,000  Level Indianapolis Center
00:02 36.2439 -85.5900 160° South 401 461 35,000  Level Indianapolis Center
00:04 36.0267 -85.4944 160° South 397 457 35,000  Level Atlanta Center
00:05 35.9208 -85.4464 160° South 403 464 35,000  Level Atlanta Center
00:06 35.8025 -85.3933 160° South 408 470 35,000  Level Atlanta Center
00:07 35.6967 -85.3453 160° South 408 470 35,000  Level Atlanta Center
00:08 35.5908 -85.2978 160° South 408 470 35,000  Level Atlanta Center
00:09 35.4828 -85.2478 159° South 408 470 35,000  Level Atlanta Center
00:10 35.3747 -85.2003 160° South 408 470 35,000  Level Atlanta Center
00:11 35.2667 -85.1531 160° South 408 470 35,000  Level Atlanta Center
00:13 35.0464 -85.0561 160° South 413 475 35,000  Level Atlanta Center
00:14 34.9383 -85.0092 160° South 413 475 35,000  Level Atlanta Center
00:15 34.8322 -84.9597 159° South 413 475 35,000  Level Atlanta Center
00:16 34.7219 -84.9131 161° South 419 482 35,000  Level Atlanta Center
00:17 34.6158 -84.8642 159° South 419 482 35,000  Level Atlanta Center
00:18 34.5056 -84.8153 160° South 412 474 35,000  Level Atlanta Center
00:19 34.3933 -84.7664 160° South 417 480 35,000 -300 Level Atlanta Center
00:20 34.2808 -84.7175 160° South 426 490 34,500 -900 Descending Atlanta Center
00:21 34.1808 -84.6742 160° South 426 490 33,200 -780 Descending Atlanta Center
00:22 34.0517 -84.6231 162° South 437 503 33,000 -120 Descending Atlanta Center
00:23 33.9392 -84.5722 159° South 437 503 33,000  Level Atlanta Center
00:24 33.8289 -84.5239 160° South 437 503 33,000  Level Atlanta Center
00:25 33.7289 -84.4783 159° South 430 495 33,000  Level Atlanta Center
00:26 33.6100 -84.4253 160° South 430 495 33,000  Level Atlanta Center
00:27 33.5058 -84.3328 143° Southeast 430 495 33,000  Level Atlanta Center
00:28 33.4058 -84.2503 145° Southeast 441 507 33,000  Level Atlanta Center
00:29 33.3161 -84.1756 145° Southeast 441 507 33,000  Level Atlanta Center
00:30 33.2181 -84.0908 144° Southeast 441 507 33,000  Level Atlanta Center
00:31 33.1181 -84.0092 146° Southeast 447 514 33,000  Level Atlanta Center
00:32 33.0114 -83.9150 143° Southeast 442 509 33,000  Level Atlanta Center
00:33 32.9133 -83.8308 144° Southeast 442 509 33,000  Level Atlanta Center
00:34 32.8108 -83.7497 146° Southeast 442 509 33,000  Level Atlanta Center
00:35 32.7103 -83.6661 145° Southeast 447 514 33,000  Level Atlanta Center
00:37 32.5181 -83.4764 140° Southeast 452 520 33,000  Level Jacksonville Center
00:38 32.4267 -83.3822 139° Southeast 452 520 33,000  Level Jacksonville Center
00:39 32.3289 -83.2858 140° Southeast 452 520 33,000  Level Jacksonville Center
00:40 32.2331 -83.1897 140° Southeast 452 520 33,000  Level Jacksonville Center
00:41 32.1350 -83.0936 140° Southeast 452 520 33,000  Level Jacksonville Center
00:42 32.0411 -83.0003 140° Southeast 452 520 33,000  Level Jacksonville Center
00:43 31.9411 -82.9047 141° Southeast 452 520 33,000  Level Jacksonville Center
00:44 31.8450 -82.8094 140° Southeast 452 520 33,000 -300 Level Jacksonville Center
00:45 31.7467 -82.7117 140° Southeast 452 520 32,400 -1,260 Descending Jacksonville Center
00:46 31.6506 -82.6217 141° Southeast 452 520 30,500 -1,980 Descending Jacksonville Center
00:47 31.5522 -82.5244 140° Southeast 452 520 28,500 -2,100 Descending Jacksonville Center
00:48 31.4475 -82.4494 149° Southeast 452 520 26,400 -2,400 Descending Jacksonville Center
00:49 31.3303 -82.3867 155° Southeast 437 503 23,700 -2,640 Descending Jacksonville Center
00:50 31.2258 -82.3289 155° Southeast 420 483 21,200 -2,520 Descending Jacksonville Center
00:51 31.1211 -82.2736 156° South 420 483 18,700 -2,520 Descending Jacksonville Center
00:51 31.0644 -82.2378 152° Southeast 409 471 17,300 -2,460 Descending Jacksonville Center
00:53 30.9597 -82.1803 155° Southeast 387 445 14,600 -2,460 Descending Jacksonville Center
00:54 30.8761 -82.1350 155° Southeast 328 377 12,100 -2,340 Descending Jacksonville Center
00:55 30.8006 -82.0897 153° Southeast 273 314 10,000 -2,340 Descending Jacksonville Center
00:56 30.7294 -82.0517 155° Southeast 264 304 7,400 -2,460 Descending Jacksonville Center
00:57 30.6622 -82.0136 154° Southeast 260 299 5,000 -2,340 Descending Jacksonville Center
00:58 30.5994 -81.9803 155° Southeast 244 281 2,700 -1,500 Descending Jacksonville Center
00:59 30.5386 -81.9469 155° Southeast 237 273 2,000 -360 Descending Jacksonville Center
01:00 30.4903 -81.9089 146° Southeast 228 262 2,000  Level Jacksonville Center
01:01 30.4731 -81.8369 106° East 217 250 2,000 -360 Level Jacksonville Center
01:02 30.4747 -81.7814 88° East 131 151 1,300 -600 Descending Jacksonville Center
01:03 30.4847 -81.7378 75° East 139 160 800 -540 Descending Jacksonville Center
01:05 30.4833 -81.6833 99° East  Level FlightAware Approximate
01:12 30.4941 -81.6879 99° East  Level Estimated